Location: Misciano
(43.5000°N, 11.9500°E)
Time: 05:18:12
(UTC+00:00)

USA 238 DEB - Pass Details

Date: 13 August 2020
Orbit: 1006 x 1206 km, 63.4° (Epoch: 17 September)

Event Time Altitude Azimuth Distance (km) Brightness Sun altitude
Rises 18:36:14 0° 183° (S) 3,722 6.3 -3.9°
Reaches altitude 10° 18:39:02 10° 174° (S) 2,786 5.6 -4.3°
Maximum altitude 18:44:45 33° 113° (ESE) 1,665 4.2 -5.3°
Drops below altitude 10° 18:50:39 10° 52° (NE) 2,887 5.7 -6.2°
Sets 18:53:36 0° 44° (NE) 3,877 6.5 -6.7°
